Home > Weather > Kalamazoo > Past weeks

Flag for USA Past Weather in Kalamazoo, Michigan, USA — Yesterday and Last 2 Weeks

Now
66 °F

Overcast.


Feels Like: 66 °F
Forecast: 64 / 78 °F
Wind: 6 mph from Northeast

Location: Kalamazoo / Battle Creek International Airport

Current Time: Jul 30, 2016 at 3:34:49 AM

Latest Report: Jul 30, 2016 at 2:53 AM


Visibility: 10 mi

Pressure: 29.96 "Hg

Humidity: 78%

Dew Point: 59 °F

Location of KalamazooLocation

Past Weather in Kalamazoo — Graph

°F

Kalamazoo Temperature Yesterday

Maximum temperature yesterday: 79 °F (at 2:53 PM)
Minimum temperature yesterday: 67 °F (at 6:53 AM)
Average temperature yesterday: 72 °F

High & Low Weather Summary for the Past Weeks

 TemperatureHumidityPressure
High91 °F (Jul 23, 2:53 PM)94% (Jul 23, 6:01 AM)30.25 "Hg (Jul 23, 6:01 AM)
Low55 °F (Jul 17, 4:53 AM)33% (Jul 23, 4:53 PM)29.85 "Hg (Jul 24, 7:53 PM)
Average75 °F69%30.02 "Hg
* Reported Jul 15 1:53 AM — Jul 30 1:53 AM, Kalamazoo, Weather by CustomWeather, © 2016

Note: Actual official high and low records may vary slightly from our data, if they occured in-between our weather recording intervals... More about our weather records

Advertising

Kalamazoo Weather History for the Previous 24 Hours

Scroll right to see more
 ConditionsComfort  
Time TempWeatherWind HumidityBarometerVisibility
1:53 AM
Sat, Jul 30
69 °FOvercast.No wind70%29.96 "Hg10 mi
12:53 AM70 °FOvercast.3 mph66%29.96 "Hg10 mi
11:53 PM
Fri, Jul 29
71 °FPassing clouds.3 mph63%29.96 "Hg10 mi
10:53 PM71 °FOvercast.6 mph68%29.97 "Hg10 mi
9:53 PM73 °FPassing clouds.5 mph62%29.96 "Hg10 mi
8:53 PM74 °FPassing clouds.5 mph64%29.95 "Hg10 mi
7:53 PM74 °FScattered clouds.6 mph69%29.95 "Hg10 mi
6:53 PM75 °FSunny.10 mph69%29.93 "Hg10 mi
5:53 PM76 °FPassing clouds.5 mph69%29.94 "Hg10 mi
4:53 PM76 °FSunny.7 mph69%29.93 "Hg10 mi
3:53 PM78 °FPassing clouds.8 mph66%29.92 "Hg10 mi
2:53 PM79 °FScattered clouds.8 mph67%29.94 "Hg10 mi
2:04 PM77 °FPartly sunny.5 mph71%29.97 "Hg10 mi
1:53 PM77 °FScattered clouds.6 mph71%29.95 "Hg10 mi
12:53 PM73 °FBroken clouds.3 mph79%29.97 "Hg10 mi
11:53 AM70 °FLight rain. Partly sunny.5 mph87%29.98 "Hg9 mi
10:59 AM67 °FStrong thunderstorms. Fog.5 mph90%29.99 "Hg1 mi
10:55 AM68 °FThunderstorms. Fog.5 mph87%29.99 "Hg4 mi
9:53 AM67 °FThundershowers. Fog.8 mph87%29.97 "Hg1 mi
9:04 AM69 °FThundershowers. Mostly cloudy.5 mph84%29.97 "Hg10 mi
8:53 AM68 °FLow clouds.5 mph87%29.95 "Hg10 mi
8:04 AM68 °FThundershowers. Partly sunny.5 mph84%29.97 "Hg10 mi
7:53 AM67 °FPartly sunny.6 mph81%29.96 "Hg10 mi
6:53 AM67 °FPassing clouds.5 mph85%29.93 "Hg10 mi
5:53 AM69 °FPartly cloudy.No wind84%29.92 "Hg10 mi
4:53 AM69 °FMostly cloudy.No wind87%29.92 "Hg10 mi
3:53 AM69 °FOvercast.3 mph87%29.92 "Hg10 mi
Weather by CustomWeather, © 2016

See weather overviewHow to use our weather pages